Location: Kresge Environmental Education Center
(43.1138°N, 83.2433°W)
Time: 15:17:36
(UTC-04:00)

Daily predictions for brighter satellites

Satellite Brightness Start Highest point End
(mag) Time Altitude Azimuth Time Altitude Azimuth Time Altitude Azimuth
SPOT 5 4.1 21:45:55 10° ESE 21:50:07 29° ENE 21:54:31 10° N
Cosmos 2061 Rocket 4.2 21:45:25 10° N 21:51:46 61° E 21:58:06 10° SSE
Abrixas rocket 2.5 21:50:18 10° WNW 21:53:32 64° NNE 21:56:46 10° ESE
Cosmos 1408 Rocket 3.9 21:51:39 10° SSE 21:55:44 44° E 21:59:52 10° NNE
YAOGAN 6 2.6 21:53:40 10° SSE 21:57:19 90° WNW 22:01:03 10° NNW
Cosmos 2221 2.9 21:54:16 10° NNW 21:58:38 68° W 22:03:00 10° S
BREEZE-M DEB (TANK) 3.0 21:57:55 10° W 21:59:48 35° N 22:03:12 10° ENE
Cosmos 2227 4.2 21:56:26 10° S 22:02:05 65° ESE 22:07:45 10° NNE
Envisat 4.0 21:57:31 10° S 22:02:24 47° W 22:07:19 10° NNW
Meteor 1-29 3.1 22:02:06 10° N 22:05:32 80° WNW 22:08:59 10° SSW
Cosmos 1814 Rocket 4.5 22:01:20 10° N 22:06:32 50° ENE 22:11:33 11° SE
Cosmos 1726 2.6 22:03:49 10° N 22:07:20 43° ENE 22:10:46 10° SSE
Cosmos 1725 Rocket 4.4 22:04:15 10° N 22:10:16 46° ENE 22:16:09 10° SSE
Cosmos 1763 Rocket 4.0 22:07:09 10° N 22:12:01 43° ENE 22:16:28 12° SE
Cosmos 841 Rocket 4.4 22:07:21 10° N 22:12:10 35° ENE 22:16:35 12° SE
Cosmos 332 Rocket 3.9 22:10:08 10° NNW 22:15:02 69° ENE 22:19:41 11° SSE
Terra 3.7 22:12:12 10° ESE 22:15:17 17° ENE 22:18:23 10° NNE
Cosmos 1802 Rocket 4.0 22:09:17 10° N 22:15:28 85° E 22:21:38 10° S
Tiangong 1 0.7 22:13:07 10° W 22:15:56 76° S 22:18:28 12° ESE
ATLAS 5 CENTAUR R/B 3.5 22:13:00 10° WSW 22:17:25 38° NW 22:22:16 10° NNE
Cosmos 2263 Rocket 3.0 22:12:42 10° SSE 22:17:28 30° ESE 22:22:17 10° NE
Helios 1B rocket 3.5 22:14:50 10° N 22:18:51 48° WNW 22:22:50 10° SW
Abrixas 2.9 22:18:42 10° SSW 22:21:10 32° SE 22:23:39 10° E
Cosmos 1300 2.9 22:19:24 10° N 22:23:10 52° E 22:26:18 14° SSE
USA 234 3.6 22:28:30 10° ENE 22:34:38 41° SE 22:40:42 10° SSW
Cosmos 1766 Rocket 4.0 22:30:47 10° SSW 22:35:04 63° W 22:39:24 10° N
Cosmos 2016 Rocket 4.1 22:30:13 10° N 22:36:29 80° W 22:42:38 10° S
Cosmos 1328 Rocket 3.5 22:32:13 10° N 22:36:34 75° E 22:40:05 15° SSE
Cosmos 1151 Rocket 3.7 22:32:30 10° N 22:36:40 41° ENE 22:39:31 18° SE
SPOT 1/Viking Rocket 3.8 22:33:04 15° SE 22:37:12 57° ENE 22:42:15 10° N
SL-14 R/B 3.2 22:36:15 10° S 22:40:13 76° E 22:44:08 10° NNE
Cosmos 1515 Rocket 3.6 22:40:38 10° N 22:44:57 66° E 22:48:00 19° SSE
MetOp-A 4.4 22:39:49 10° S 22:45:07 66° WSW 22:50:28 10° NNW
CZ-4C R/B 3.6 22:46:15 16° ESE 22:47:01 16° ESE 22:50:21 10° ENE
ERS-1 Rocket 3.8 22:42:26 10° S 22:47:18 48° W 22:52:10 10° NNW
H-2A R/B 3.5 22:47:34 16° ESE 22:49:52 25° ENE 22:53:18 10° NNE
Cosmos 1743 Rocket 3.5 22:46:32 10° S 22:50:47 86° E 22:55:08 10° N
EO 1 Delta rocket 3.8 22:47:12 17° SSE 22:50:48 79° E 22:55:32 10° N
Cosmos 1603 4.4 22:45:22 10° NW 22:50:49 50° WSW 22:55:40 13° S
USA 245 3.5 22:48:40 17° S 22:51:21 73° W 22:55:53 10° NNW
RESURS DK-1 3.6 22:47:32 10° NW 22:51:22 36° WSW 22:54:38 13° S
ARGOS 3.3 22:46:39 13° S 22:51:31 75° WSW 22:56:56 10° NNW
Cosmos 2058 3.3 22:50:48 21° SSE 22:53:21 47° E 22:57:25 10° NNE
Cosmos 1328 4.0 22:49:43 10° SSW 22:53:44 76° W 22:57:48 10° N
Cosmos 1455 3.4 22:52:29 10° NNE 22:55:52 28° ENE 22:57:20 22° ESE
Cosmos 2233 Rocket 4.0 22:53:34 10° N 22:59:47 70° E 23:04:08 20° SSE
Nimbus 7 Rocket 4.4 22:56:46 10° NNE 23:02:48 79° ESE 23:08:45 10° SSW
Cosmos 2228 Rocket 3.5 22:59:12 10° NNW 23:03:45 62° W 23:07:16 16° S
Cosmos 1943 3.3 22:58:12 10° NNW 23:03:52 78° WSW 23:07:41 22° SSE
Cosmos 371 Rocket 3.9 22:59:12 10° NNW 23:03:52 50° WSW 23:07:23 17° S
Cosmos 1503 Rocket 4.1 23:00:28 17° S 23:04:17 52° ESE 23:09:19 10° NNE
Cosmos 540 Rocket 3.9 23:00:38 10° N 23:05:38 48° ENE 23:08:29 24° SE
ERBS 3.9 23:14:50 10° WNW 23:17:36 23° SW 23:18:29 21° SSW
H-2A R/B 2.5 23:17:23 19° S 23:21:09 62° W 23:26:34 10° NNW
Cosmos 1869 4.3 23:21:07 10° NNE 23:24:39 31° ENE 23:25:35 27° ESE
SPOT 5 4.2 23:24:13 14° SSW 23:28:01 36° W 23:32:45 10° NNW
Lacrosse 5 3.6 23:25:01 10° WNW 23:28:44 21° WSW 23:31:05 15° SSW
Sich 1 3.9 23:28:52 29° ESE 23:29:39 32° E 23:33:27 10° NNE
H-2A ROCKET BODY 4.0 23:25:06 10° SSW 23:29:46 28° SSE 23:44:14 10° E
Abrixas rocket 3.8 23:27:26 10° W 23:29:56 23° SW 23:29:56 23° SW
Cosmos 2151 3.6 23:27:50 16° SSW 23:31:04 55° W 23:35:18 10° N
Landsat 7 4.2 23:35:07 26° S 23:37:39 56° W 23:42:21 10° NNW
Cosmos 1626 2.7 23:38:04 25° SW 23:39:56 52° W 23:43:37 10° N
Cosmos 1703 3.8 23:39:14 24° SSW 23:41:23 56° W 23:45:20 10° N
CZ-4C R/B 4.3 23:40:17 32° ESE 23:41:35 40° ENE 23:45:45 10° N
SL-19 R/B 4.1 23:36:11 10° NNE 23:41:35 74° ESE 23:44:40 28° S
Cosmos 1707 Rocket 3.6 23:42:33 10° N 23:47:02 66° E 23:48:18 44° SE
deb Chang Zheng 4 3.5 23:43:25 10° NNE 23:47:49 75° ESE 23:49:17 41° S
Cosmos 1354 Rocket 4.4 23:45:33 13° SSW 23:50:15 62° WNW 23:55:27 10° NNE
Cosmos 2278 Rocket 4.0 23:51:08 15° E 23:51:09 15° E 23:54:18 10° ENE
Tiangong 1 3.3 23:48:54 10° W 23:49:35 15° WSW 23:49:35 15° WSW
Terra 2.2 23:50:32 32° SSW 23:52:34 57° W 23:57:16 10° NNW
Abrixas 3.6 23:53:20 10° W 23:55:55 40° NNW 23:57:27 20° NE
